EN

Hourly Weather Birmingham

Today, 15 June, Tuesday

Time Temperature Precipitation Wind Pressure Humidity
00:00 +9°C° 0 mm 2 mps 754 mmHg 83%
01:00 +8°C° 0 mm 2 mps 754 mmHg 85%
02:00 +9°C° 0 mm 1 mps 754 mmHg 87%
03:00 +9°C° 0 mm 1 mps 754 mmHg 89%
04:00 +10°C° 0 mm 1 mps 754 mmHg 87%
05:00 +10°C° 0 mm 1 mps 754 mmHg 84%
06:00 +11°C° 0 mm 1 mps 754 mmHg 82%
07:00 +13°C° 0 mm 1 mps 754 mmHg 76%
08:00 +15°C° 0 mm 1 mps 754 mmHg 69%
09:00 +16°C° 0 mm 1 mps 754 mmHg 63%
10:00 +18°C° 0 mm 1 mps 754 mmHg 60%
11:00 +18°C° 0 mm 2 mps 753 mmHg 57%
12:00 +19°C° 0 mm 2 mps 753 mmHg 53%
13:00 +20°C° 0 mm 2 mps 752 mmHg 53%
14:00 +21°C° 0 mm 3 mps 752 mmHg 52%
15:00 +21°C° 0 mm 3 mps 752 mmHg 52%
16:00 +21°C° 0 mm 3 mps 751 mmHg 57%
17:00 +21°C° 0 mm 3 mps 751 mmHg 61%
18:00 +20°C° 0 mm 3 mps 750 mmHg 66%
19:00 +18°C° 0 mm 3 mps 750 mmHg 71%
20:00 +17°C° 0 mm 2 mps 749 mmHg 76%
21:00 +15°C° 0 mm 2 mps 749 mmHg 81%
22:00 +14°C° 0 mm 2 mps 749 mmHg 82%
23:00 +14°C° 0 mm 2 mps 749 mmHg 83%

Tomorrow, 16 June, Wednesday

Time Temperature Precipitation Wind Pressure Humidity
00:00 +13°C° 0 mm 2 mps 749 mmHg 84%
01:00 +13°C° 0 mm 2 mps 748 mmHg 84%
02:00 +12°C° 0 mm 2 mps 748 mmHg 85%
03:00 +12°C° 0 mm 2 mps 747 mmHg 85%
04:00 +13°C° 0 mm 2 mps 747 mmHg 84%
05:00 +14°C° 0 mm 2 mps 747 mmHg 82%
06:00 +14°C° 0 mm 2 mps 746 mmHg 80%
07:00 +16°C° 0 mm 2 mps 746 mmHg 75%
08:00 +18°C° 0 mm 3 mps 746 mmHg 69%
09:00 +19°C° 0 mm 3 mps 746 mmHg 64%
10:00 +20°C° 0 mm 3 mps 746 mmHg 60%
11:00 +21°C° 0 mm 3 mps 746 mmHg 56%
12:00 +22°C° 0 mm 4 mps 745 mmHg 52%
13:00 +22°C° 0 mm 3 mps 745 mmHg 53%
14:00 +24°C° 0 mm 3 mps 745 mmHg 54%
15:00 +24°C° 0 mm 3 mps 744 mmHg 54%
16:00 +22°C° 0 mm 3 mps 744 mmHg 60%
17:00 +22°C° 0 mm 3 mps 744 mmHg 65%
18:00 +21°C° 0 mm 2 mps 744 mmHg 70%
19:00 +20°C° 0 mm 2 mps 744 mmHg 76%
20:00 +19°C° 0 mm 1 mps 744 mmHg 81%
21:00 +18°C° 0 mm 1 mps 744 mmHg 86%
22:00 +16°C° 0 mm 1 mps 744 mmHg 87%
23:00 +16°C° 0 mm 1 mps 744 mmHg 89%

Day after tomorrow, 17 June, Thursday

Time Temperature Precipitation Wind Pressure Humidity
00:00 +15°C° 0 mm 2 mps 744 mmHg 90%
01:00 +15°C° 0.1 mm 2 mps 744 mmHg 91%
02:00 +14°C° 0.1 mm 2 mps 744 mmHg 92%
03:00 +14°C° 0.1 mm 2 mps 744 mmHg 94%
04:00 +13°C° 0.4 mm 3 mps 744 mmHg 95%
05:00 +13°C° 0.4 mm 3 mps 744 mmHg 96%
06:00 +12°C° 0.4 mm 3 mps 744 mmHg 96%
07:00 +12°C° 0.1 mm 3 mps 744 mmHg 95%
08:00 +13°C° 0.1 mm 3 mps 745 mmHg 93%
09:00 +13°C° 0.1 mm 3 mps 745 mmHg 91%
10:00 +14°C° 0 mm 3 mps 745 mmHg 83%
11:00 +17°C° 0 mm 3 mps 746 mmHg 75%
12:00 +19°C° 0 mm 3 mps 746 mmHg 68%
13:00 +19°C° 0 mm 3 mps 746 mmHg 68%
14:00 +19°C° 0 mm 3 mps 746 mmHg 68%
15:00 +19°C° 0 mm 3 mps 747 mmHg 68%
16:00 +18°C° 0 mm 3 mps 747 mmHg 69%
17:00 +18°C° 0 mm 3 mps 747 mmHg 69%
18:00 +17°C° 0 mm 3 mps 747 mmHg 70%
19:00 +16°C° 0 mm 3 mps 748 mmHg 71%
20:00 +14°C° 0 mm 3 mps 748 mmHg 71%
21:00 +13°C° 0 mm 4 mps 749 mmHg 71%
22:00 +12°C° 0 mm 3 mps 749 mmHg 72%
23:00 +12°C° 0 mm 3 mps 749 mmHg 73%

18 June, Friday

Time Temperature Precipitation Wind Pressure Humidity
00:00 +11°C° 0 mm 3 mps 749 mmHg 74%
01:00 +10°C° 0 mm 3 mps 749 mmHg 77%
02:00 +10°C° 0 mm 3 mps 749 mmHg 80%
03:00 +10°C° 0 mm 4 mps 749 mmHg 82%
04:00 +10°C° 0 mm 4 mps 749 mmHg 81%
05:00 +10°C° 0 mm 4 mps 749 mmHg 80%
06:00 +11°C° 0 mm 3 mps 749 mmHg 79%
07:00 +12°C° 0 mm 4 mps 749 mmHg 78%
08:00 +13°C° 0 mm 4 mps 749 mmHg 77%
09:00 +14°C° 0 mm 4 mps 749 mmHg 76%
10:00 +13°C° 1.1 mm 4 mps 749 mmHg 81%
11:00 +13°C° 1.1 mm 4 mps 749 mmHg 86%
12:00 +12°C° 1.1 mm 3 mps 749 mmHg 91%
13:00 +12°C° 1.5 mm 4 mps 749 mmHg 92%
14:00 +12°C° 1.5 mm 4 mps 749 mmHg 92%
15:00 +12°C° 1.5 mm 4 mps 748 mmHg 93%
16:00 +12°C° 0.4 mm 4 mps 748 mmHg 94%
17:00 +12°C° 0.4 mm 3 mps 748 mmHg 94%
18:00 +12°C° 0.4 mm 3 mps 749 mmHg 94%
19:00 +11°C° 0 mm 3 mps 749 mmHg 94%
20:00 +12°C° 0 mm 2 mps 749 mmHg 95%
21:00 +10°C° 0 mm 2 mps 749 mmHg 95%
22:00 +10°C° 0 mm 2 mps 749 mmHg 95%
23:00 +11°C° 0 mm 1 mps 750 mmHg 95%

19 June, Saturday

Time Temperature Precipitation Wind Pressure Humidity
00:00 +11°C° 0 mm 1 mps 750 mmHg 95%
01:00 +11°C° 0 mm 1 mps 750 mmHg 95%
02:00 +10°C° 0 mm 1 mps 750 mmHg 95%
03:00 +10°C° 0 mm 1 mps 749 mmHg 95%
04:00 +11°C° 0 mm 1 mps 750 mmHg 94%
05:00 +10°C° 0 mm 2 mps 750 mmHg 93%
06:00 +12°C° 0 mm 2 mps 750 mmHg 92%
07:00 +13°C° 0 mm 2 mps 750 mmHg 85%
08:00 +14°C° 0 mm 2 mps 750 mmHg 79%
09:00 +16°C° 0 mm 3 mps 750 mmHg 72%
10:00 +16°C° 0 mm 3 mps 750 mmHg 69%
11:00 +17°C° 0 mm 3 mps 749 mmHg 65%
12:00 +18°C° 0 mm 3 mps 749 mmHg 62%
13:00 +18°C° 0 mm 4 mps 749 mmHg 64%
14:00 +18°C° 0 mm 4 mps 748 mmHg 67%
15:00 +16°C° 0 mm 5 mps 748 mmHg 69%
16:00 +16°C° 0 mm 5 mps 748 mmHg 72%
17:00 +16°C° 0 mm 5 mps 747 mmHg 75%
18:00 +15°C° 0 mm 5 mps 747 mmHg 77%
19:00 +14°C° 0 mm 5 mps 747 mmHg 81%
20:00 +13°C° 0 mm 5 mps 746 mmHg 84%
21:00 +12°C° 0 mm 5 mps 746 mmHg 87%
22:00 +12°C° 0 mm 5 mps 745 mmHg 87%
23:00 +10°C° 0 mm 5 mps 744 mmHg 87%

20 June, Sunday

Time Temperature Precipitation Wind Pressure Humidity
00:00 +9°C° 0 mm 5 mps 744 mmHg 87%
01:00 +9°C° 0 mm 5 mps 743 mmHg 85%
02:00 +9°C° 0 mm 5 mps 742 mmHg 83%
03:00 +9°C° 0 mm 5 mps 741 mmHg 81%
04:00 +9°C° 4 mm 6 mps 740 mmHg 86%
05:00 +9°C° 4 mm 7 mps 739 mmHg 92%
06:00 +10°C° 4 mm 7 mps 737 mmHg 97%
07:00 +10°C° 0.7 mm 7 mps 737 mmHg 97%
08:00 +11°C° 0.7 mm 6 mps 736 mmHg 97%
09:00 +13°C° 0.7 mm 6 mps 735 mmHg 98%
10:00 +14°C° 0.1 mm 6 mps 736 mmHg 93%
11:00 +14°C° 0.1 mm 7 mps 736 mmHg 89%
12:00 +15°C° 0.1 mm 7 mps 737 mmHg 85%
13:00 +16°C° 0.3 mm 7 mps 737 mmHg 80%
14:00 +17°C° 0.3 mm 7 mps 737 mmHg 75%
15:00 +18°C° 0.3 mm 7 mps 737 mmHg 70%
16:00 +19°C° 0.2 mm 6 mps 737 mmHg 74%
17:00 +17°C° 0.2 mm 6 mps 737 mmHg 78%
18:00 +17°C° 0.2 mm 5 mps 738 mmHg 82%
19:00 +16°C° 0 mm 5 mps 738 mmHg 84%
20:00 +15°C° 0 mm 5 mps 738 mmHg 87%
21:00 +14°C° 0 mm 5 mps 738 mmHg 89%
22:00 +13°C° 0 mm 4 mps 738 mmHg 90%
23:00 +12°C° 0 mm 4 mps 738 mmHg 91%
Show more